User: anonymous   Login
Location: Lafig�re
(44.4503°N, 4.0357°E)
Time: 17:21:58
(UTC+00:00)
Language:

Meteor 1-12 Rocket - Orbit

View from above orbital plane
View from above orbital plane
View from above satellite
View from above satellite

Ground track
Ground track

The orbit data is extracted from the following two-line orbital elements,

1 06080U 72049B   20337.38600252  .00000011  00000-0 -64737-6 0  9993
2 06080  81.2406 213.8399 0048321 305.2423  54.4225 14.00922147473948
Epoch (UTC): 02 December 2020 09:15:50
Eccentricity: 0.0048321
inclination: 81.2406°
perigee height: 855 km
apogee height: 926 km
right ascension of ascending node: 213.8399°
argument of perigee: 305.2423°
revolutions per day: 14.00922147
mean anomaly at epoch: 54.4225°
orbit number at epoch: 47394

The dashed part of the orbit path shows where the satellite is in the earth's shadow,  

DLR